COSMOS 2526

Last updated on Thu Oct 30 2025 00:02:51 GMT+0000 (Coordinated Universal Time)

1 43432U 18037A 25302.56779822 -.00000334 00000+0 00000+0 0 9992 2 43432 0.0223 117.2465 0000858 136.4748 116.9124 1.00274251 27651
UTC large
Height (km)
Speed (km/s)
/
Latitude / Longitude
Inclination (degrees)
Orbital Period (minutes)
Azimuth
Elevation
Range (km)
Doppler Factor

Next 0 passes for location: London (51.5072 / 0.1276)

Sorry there are no passes over London.